| time (UTC) | temp F | wind direction | speed MPH | gust MPH | rain 1hr in | rain 24hr in | rain mn in | humidity % | barometer mb |
| 20260905120007 | 82 | 163 | 2.0 | 5.0 | 0.00 | 0.00 | 0.00 | 87 | 1011.5 |
| 20260905115508 | 82 | 158 | 4.0 | 7.0 | 0.00 | 0.00 | 0.00 | 86 | 1011.4 |
| 20260905115008 | 82 | 167 | 3.0 | 7.0 | 0.00 | 0.00 | 0.00 | 86 | 1011.4 |
| 20260905114507 | 83 | 164 | 4.0 | 6.0 | 0.00 | 0.00 | 0.00 | 2 | 1011.4 |
| 20260905113507 | 83 | 156 | 6.0 | 7.0 | 0.00 | 0.00 | 0.00 | 86 | 1011.4 |
| 20260905112507 | 82 | 160 | 5.0 | 8.0 | 0.00 | 0.00 | 0.00 | 87 | 1011.3 |
| 20260905112008 | 82 | 154 | 6.0 | 10.0 | 0.00 | 0.00 | 0.00 | 86 | 1011.3 |
| 20260905111507 | 82 | 152 | 6.0 | 10.0 | 0.00 | 0.00 | 0.00 | 86 | 1011.3 |
| 20260905111007 | 82 | 157 | 7.0 | 9.0 | 0.00 | 0.00 | 0.00 | 86 | 1011.3 |
| 20260905110507 | 82 | 152 | 6.0 | 9.0 | 0.00 | 0.00 | 0.00 | 86 | 1011.3 |
| 20260905110007 | 82 | 167 | 3.0 | 8.0 | 0.00 | 0.00 | 0.00 | 86 | 1011.3 |
| 20260905105508 | 82 | 172 | 5.0 | 8.0 | 0.00 | 0.00 | 0.00 | 86 | 1011.4 |
| 20260905105007 | 82 | 166 | 5.0 | 8.0 | 0.00 | 0.00 | 0.00 | 86 | 1011.3 |
| 20260905104507 | 82 | 171 | 6.0 | 10.0 | 0.00 | 0.00 | 0.00 | 86 | 1011.3 |
| 20260905104008 | 82 | 170 | 3.0 | 6.0 | 0.00 | 0.00 | 0.00 | 86 | 1011.3 |
| 20260905103507 | 82 | 188 | 4.0 | 7.0 | 0.00 | 0.00 | 0.00 | 86 | 1011.1 |
| 20260905103008 | 82 | 180 | 4.0 | 8.0 | 0.00 | 0.00 | 0.00 | 86 | 1011.1 |
| 20260905102507 | 82 | 161 | 5.0 | 8.0 | 0.00 | 0.00 | 0.00 | 86 | 1011.1 |
| 20260905102008 | 82 | 158 | 5.0 | 8.0 | 0.00 | 0.00 | 0.00 | 86 | 1011.1 |
| 20260905101507 | 82 | 169 | 6.0 | 9.0 | 0.00 | 0.00 | 0.00 | 86 | 1011.3 |
| 20260905101007 | 83 | 162 | 6.0 | 8.0 | 0.00 | 0.00 | 0.00 | 86 | 1011.3 |
| 20260905100507 | 83 | 166 | 5.0 | 8.0 | 0.00 | 0.00 | 0.00 | 86 | 1011.1 |
| 20260905100008 | 82 | 169 | 5.0 | 8.0 | 0.00 | 0.00 | 0.00 | 86 | 1011.1 |
| 20260905095507 | 83 | 162 | 6.0 | 8.0 | 0.00 | 0.00 | 0.00 | 86 | 1011.3 |
| 20260905095007 | 83 | 158 | 6.0 | 8.0 | 0.00 | 0.00 | 0.00 | 86 | 1011.3 |
| 20260905094507 | 83 | 170 | 5.0 | 7.0 | 0.00 | 0.00 | 0.00 | 85 | 1011.1 |
| 20260905094008 | 83 | 170 | 3.0 | 7.0 | 0.00 | 0.00 | 0.00 | 85 | 1011.1 |
| 20260905093507 | 83 | 187 | 2.0 | 6.0 | 0.00 | 0.00 | 0.00 | 85 | 1011.1 |
| 20260905093008 | 83 | 172 | 4.0 | 7.0 | 0.00 | 0.00 | 0.00 | 85 | 1011.3 |
| 20260905092008 | 83 | 160 | 5.0 | 8.0 | 0.00 | 0.00 | 0.00 | 85 | 1011.5 |
| 20260905091007 | 83 | 166 | 5.0 | 7.0 | 0.00 | 0.00 | 0.00 | 84 | 1011.5 |
| 20260905090507 | 83 | 168 | 5.0 | 7.0 | 0.00 | 0.00 | 0.00 | 84 | 1011.5 |
| 20260905085507 | 83 | 179 | 5.0 | 9.0 | 0.00 | 0.00 | 0.00 | 84 | 1011.4 |
| 20260905085009 | 83 | 166 | 5.0 | 10.0 | 0.00 | 0.00 | 0.00 | 84 | 1011.3 |
| 20260905084507 | 83 | 174 | 4.0 | 7.0 | 0.00 | 0.00 | 0.00 | 83 | 1011.3 |
| 20260905084008 | 83 | 173 | 4.0 | 6.0 | 0.00 | 0.00 | 0.00 | 83 | 1011.3 |
| 20260905083507 | 83 | 197 | 4.0 | 8.0 | 0.00 | 0.00 | 0.00 | 83 | 1011.3 |
| 20260905083007 | 83 | 177 | 5.0 | 9.0 | 0.00 | 0.00 | 0.00 | 83 | 1011.3 |
| 20260905082507 | 83 | 170 | 5.0 | 9.0 | 0.00 | 0.00 | 0.00 | 83 | 1011.4 |
| 20260905081507 | 83 | 177 | 5.0 | 8.0 | 0.00 | 0.00 | 0.00 | 82 | 1011.6 |
| 20260905081008 | 83 | 174 | 5.0 | 8.0 | 0.00 | 0.00 | 0.00 | 82 | 1011.5 |
| 20260905080507 | 83 | 174 | 5.0 | 8.0 | 0.00 | 0.00 | 0.00 | 82 | 1011.5 |
| 20260905075508 | 83 | 175 | 5.0 | 8.0 | 0.00 | 0.00 | 0.00 | 82 | 1011.5 |
| 20260905075007 | 83 | 174 | 5.0 | 7.0 | 0.00 | 0.00 | 0.00 | 81 | 1011.6 |
| 20260905074506 | 83 | 171 | 5.0 | 8.0 | 0.00 | 0.00 | 0.00 | 81 | 1011.7 |
| 20260905074008 | 83 | 173 | 5.0 | 8.0 | 0.00 | 0.00 | 0.00 | 81 | 1011.7 |
| 20260905073507 | 83 | 170 | 4.0 | 8.0 | 0.00 | 0.00 | 0.00 | 81 | 1011.7 |
| 20260905073008 | 83 | 179 | 3.0 | 6.0 | 0.00 | 0.00 | 0.00 | 81 | 1011.9 |
| 20260905072507 | 83 | 165 | 4.0 | 8.0 | 0.00 | 0.00 | 0.00 | 81 | 1011.9 |
| 20260905072008 | 83 | 172 | 3.0 | 6.0 | 0.00 | 0.00 | 0.00 | 80 | 1012.0 |
| 20260905071507 | 83 | 178 | 5.0 | 8.0 | 0.00 | 0.00 | 0.00 | 80 | 1012.0 |
| 20260905071008 | 83 | 164 | 5.0 | 7.0 | 0.00 | 0.00 | 0.00 | 80 | 1012.0 |
| 20260905070507 | 83 | 166 | 4.0 | 9.0 | 0.00 | 0.00 | 0.00 | 80 | 1011.9 |
| 20260905065507 | 83 | 154 | 6.0 | 7.0 | 0.00 | 0.00 | 0.00 | 80 | 1012.0 |
| 20260905065007 | 83 | 154 | 5.0 | 9.0 | 0.00 | 0.00 | 0.00 | 80 | 1011.9 |
| 20260905064507 | 84 | 166 | 5.0 | 7.0 | 0.00 | 0.00 | 0.00 | 80 | 1011.9 |
| 20260905064007 | 83 | 151 | 6.0 | 9.0 | 0.00 | 0.00 | 0.00 | 80 | 1011.9 |
| 20260905063507 | 83 | 154 | 7.0 | 9.0 | 0.00 | 0.00 | 0.00 | 80 | 1011.9 |
| 20260905063008 | 83 | 152 | 7.0 | 8.0 | 0.00 | 0.00 | 0.00 | 81 | 1011.8 |
| 20260905062507 | 83 | 168 | 6.0 | 9.0 | 0.00 | 0.00 | 0.00 | 81 | 1011.9 |
| 20260905062007 | 83 | 167 | 7.0 | 9.0 | 0.00 | 0.00 | 0.00 | 81 | 1011.9 |
| 20260905061507 | 83 | 158 | 6.0 | 9.0 | 0.00 | 0.00 | 0.00 | 81 | 1011.9 |
| 20260905061008 | 83 | 163 | 5.0 | 9.0 | 0.00 | 0.00 | 0.00 | 81 | 1012.0 |
| 20260905060507 | 83 | 172 | 4.0 | 9.0 | 0.00 | 0.00 | 0.00 | 81 | 1012.0 |
| 20260905060007 | 83 | 154 | 8.0 | 12.0 | 0.00 | 0.00 | 0.00 | 82 | 1011.9 |
| 20260905055508 | 83 | 161 | 6.0 | 10.0 | 0.00 | 0.00 | 0.00 | 82 | 1012.0 |
| 20260905055007 | 83 | 162 | 7.0 | 10.0 | 0.00 | 0.00 | 0.00 | 82 | 1012.0 |
| 20260905054507 | 83 | 164 | 6.0 | 9.0 | 0.00 | 0.00 | 0.00 | 81 | 1012.0 |
| 20260905054007 | 83 | 169 | 5.0 | 9.0 | 0.00 | 0.00 | 0.00 | 82 | 1012.0 |
| 20260905053507 | 83 | 168 | 5.0 | 9.0 | 0.00 | 0.00 | 0.00 | 82 | 1012.1 |
| 20260905052507 | 83 | 156 | 7.0 | 9.0 | 0.00 | 0.00 | 0.00 | 82 | 1012.2 |
| 20260905052007 | 83 | 160 | 7.0 | 9.0 | 0.00 | 0.00 | 0.00 | 81 | 1012.2 |
| 20260905051507 | 83 | 164 | 6.0 | 9.0 | 0.00 | 0.00 | 0.00 | 81 | 1012.2 |
| 20260905051007 | 83 | 176 | 5.0 | 9.0 | 0.00 | 0.00 | 0.00 | 81 | 1012.1 |
| 20260905050508 | 83 | 196 | 5.0 | 9.0 | 0.00 | 0.00 | 0.00 | 81 | 1012.2 |
| 20260905050007 | 83 | 167 | 6.0 | 8.0 | 0.00 | 0.00 | 0.00 | 81 | 1012.2 |
| 20260905045507 | 83 | 180 | 5.0 | 8.0 | 0.00 | 0.00 | 0.00 | 81 | 1012.3 |
| 20260905044507 | 84 | 168 | 6.0 | 10.0 | 0.00 | 0.00 | 0.00 | 80 | 1012.2 |
| 20260905044008 | 84 | 166 | 7.0 | 12.0 | 0.00 | 0.00 | 0.00 | 80 | 1012.3 |
| 20260905043507 | 84 | 172 | 7.0 | 12.0 | 0.00 | 0.00 | 0.00 | 81 | 1012.4 |
| 20260905042507 | 84 | 174 | 6.0 | 12.0 | 0.00 | 0.00 | 0.00 | 80 | 1012.5 |
| 20260905041007 | 84 | 176 | 6.0 | 10.0 | 0.00 | 0.00 | 0.00 | 80 | 1012.5 |
| 20260905040510 | 84 | 158 | 7.0 | 12.0 | 0.00 | 0.00 | 0.00 | 80 | 1012.7 |
| 20260905040006 | 84 | 174 | 5.0 | 8.0 | 0.00 | 0.00 | 0.00 | 78 | 1012.7 |
| 20260905035507 | 84 | 172 | 3.0 | 12.0 | 0.00 | 0.00 | 0.00 | 78 | 1012.7 |
| 20260905035007 | 84 | 158 | 5.0 | 12.0 | 0.00 | 0.00 | 0.00 | 78 | 1012.6 |
| 20260905034007 | 84 | 163 | 6.0 | 10.0 | 0.00 | 0.00 | 0.00 | 78 | 1012.6 |
| 20260905033007 | 84 | 171 | 7.0 | 12.0 | 0.00 | 0.00 | 0.00 | 77 | 1012.5 |
| 20260905032507 | 85 | 161 | 7.0 | 10.0 | 0.00 | 0.00 | 0.00 | 76 | 1012.4 |
| 20260905032007 | 85 | 172 | 4.0 | 8.0 | 0.00 | 0.00 | 0.00 | 75 | 1012.4 |
| 20260905031507 | 85 | 166 | 6.0 | 10.0 | 0.00 | 0.00 | 0.00 | 75 | 1012.3 |
| 20260905031007 | 85 | 167 | 7.0 | 13.0 | 0.00 | 0.00 | 0.00 | 75 | 1012.3 |
| 20260905030507 | 85 | 171 | 6.0 | 12.0 | 0.00 | 0.00 | 0.00 | 75 | 1012.2 |
| 20260905030007 | 85 | 159 | 8.0 | 13.0 | 0.00 | 0.00 | 0.00 | 75 | 1012.1 |
| 20260905025507 | 85 | 160 | 7.0 | 14.0 | 0.00 | 0.00 | 0.00 | 76 | 1012.1 |
| 20260905025007 | 85 | 161 | 8.0 | 15.0 | 0.00 | 0.00 | 0.00 | 76 | 1012.0 |
| 20260905024007 | 85 | 148 | 10.0 | 16.0 | 0.00 | 0.00 | 0.00 | 77 | 1012.0 |
| 20260905023507 | 85 | 151 | 10.0 | 15.0 | 0.00 | 0.00 | 0.00 | 76 | 1011.9 |
| 20260905022507 | 86 | 146 | 13.0 | 17.0 | 0.00 | 0.00 | 0.00 | 76 | 1011.6 |
| 20260905020507 | 85 | 142 | 13.0 | 17.0 | 0.00 | 0.00 | 0.00 | 74 | 1011.4 |
| 20260905020007 | 86 | 145 | 12.0 | 17.0 | 0.00 | 0.00 | 0.00 | 73 | 1011.4 |
| 20260905015506 | 86 | 146 | 13.0 | 21.0 | 0.00 | 0.00 | 0.00 | 73 | 1011.3 |
| 20260905015007 | 85 | 138 | 12.0 | 16.0 | 0.00 | 0.00 | 0.00 | 73 | 1011.2 |
| 20260905014507 | 86 | 143 | 12.0 | 16.0 | 0.00 | 0.00 | 0.00 | 74 | 1011.1 |
| 20260905014008 | 86 | 142 | 13.0 | 21.0 | 0.00 | 0.00 | 0.00 | 73 | 1011.1 |
| 20260905013007 | 86 | 151 | 13.0 | 18.0 | 0.00 | 0.00 | 0.00 | 70 | 1011.0 |
| 20260905012507 | 86 | 144 | 13.0 | 18.0 | 0.00 | 0.00 | 0.00 | 70 | 1010.9 |
| 20260905012007 | 87 | 150 | 13.0 | 18.0 | 0.00 | 0.00 | 0.00 | 68 | 1010.8 |
| 20260905011007 | 87 | 151 | 12.0 | 18.0 | 0.00 | 0.00 | 0.00 | 66 | 1010.8 |
| 20260905010006 | 87 | 153 | 11.0 | 20.0 | 0.00 | 0.00 | 0.00 | 65 | 1010.6 |
| 20260905005507 | 88 | 140 | 13.0 | 20.0 | 0.00 | 0.00 | 0.00 | 64 | 1010.5 |
| 20260905004507 | 88 | 147 | 13.0 | 20.0 | 0.00 | 0.00 | 0.00 | 62 | 1010.5 |
| 20260905004008 | 88 | 148 | 12.0 | 17.0 | 0.00 | 0.00 | 0.00 | 61 | 1010.4 |
| 20260905003506 | 88 | 145 | 16.0 | 23.0 | 0.00 | 0.00 | 0.00 | 60 | 1010.3 |
| 20260905003007 | 89 | 134 | 15.0 | 20.0 | 0.00 | 0.00 | 0.00 | 57 | 1010.2 |
| 20260905001506 | 89 | 135 | 16.0 | 24.0 | 0.00 | 0.00 | 0.00 | 54 | 1010.1 |
| 20260905000506 | 90 | 147 | 13.0 | 20.0 | 0.00 | 0.00 | 0.00 | 55 | 1010.1 |
| 20260905000007 | 90 | 138 | 15.0 | 20.0 | 0.00 | 0.00 | 0.00 | 54 | 1010.0 |
| 20260904235507 | 91 | 141 | 16.0 | 24.0 | 0.00 | 0.00 | 0.00 | 52 | 1009.9 |
| 20260904234506 | 91 | 133 | 14.0 | 22.0 | 0.00 | 0.00 | 0.00 | 50 | 1009.9 |
| 20260904234007 | 91 | 142 | 17.0 | 23.0 | 0.00 | 0.00 | 0.00 | 50 | 1009.9 |
| 20260904233507 | 91 | 141 | 16.0 | 22.0 | 0.00 | 0.00 | 0.00 | 50 | 1009.8 |
| 20260904233007 | 91 | 119 | 17.0 | 25.0 | 0.00 | 0.00 | 0.00 | 48 | 1009.8 |
| 20260904232507 | 92 | 128 | 17.0 | 23.0 | 0.00 | 0.00 | 0.00 | 48 | 1010.0 |
| 20260904232007 | 92 | 136 | 15.0 | 22.0 | 0.00 | 0.00 | 0.00 | 46 | 1009.9 |
| 20260904231506 | 92 | 135 | 18.0 | 25.0 | 0.00 | 0.00 | 0.00 | 46 | 1009.9 |
| 20260904231007 | 93 | 142 | 16.0 | 23.0 | 0.00 | 0.00 | 0.00 | 46 | 1009.9 |
| 20260904230507 | 93 | 129 | 15.0 | 22.0 | 0.00 | 0.00 | 0.00 | 44 | 1009.9 |
| 20260904230006 | 93 | 135 | 17.0 | 23.0 | 0.00 | 0.00 | 0.00 | 45 | 1009.9 |
| 20260904225506 | 93 | 127 | 16.0 | 24.0 | 0.00 | 0.00 | 0.00 | 45 | 1009.8 |
| 20260904224508 | 94 | 131 | 14.0 | 24.0 | 0.00 | 0.00 | 0.00 | 46 | 1009.9 |
| 20260904224010 | 94 | 153 | 17.0 | 22.0 | 0.00 | 0.00 | 0.00 | 47 | 1009.8 |
| 20260904223008 | 95 | 118 | 14.0 | 22.0 | 0.00 | 0.00 | 0.00 | 45 | 1009.8 |
| 20260904222507 | 94 | 138 | 16.0 | 25.0 | 0.00 | 0.00 | 0.00 | 46 | 1009.8 |
| 20260904222007 | 95 | 139 | 15.0 | 23.0 | 0.00 | 0.00 | 0.00 | 45 | 1009.9 |
| 20260904221507 | 94 | 150 | 16.0 | 21.0 | 0.00 | 0.00 | 0.00 | 46 | 1009.9 |
| 20260904221007 | 94 | 138 | 16.0 | 22.0 | 0.00 | 0.00 | 0.00 | 46 | 1009.9 |
| 20260904220506 | 94 | 132 | 17.0 | 24.0 | 0.00 | 0.00 | 0.00 | 45 | 1009.9 |
| 20260904220008 | 94 | 150 | 14.0 | 21.0 | 0.00 | 0.00 | 0.00 | 45 | 1009.9 |
| 20260904215509 | 91 | 135 | 12.0 | 20.0 | 0.00 | 0.00 | 0.00 | 44 | 1009.9 |
| 20260904215007 | 91 | 138 | 11.0 | 20.0 | 0.00 | 0.00 | 0.00 | 43 | 1009.8 |
| 20260904214507 | 92 | 149 | 11.0 | 18.0 | 0.00 | 0.00 | 0.00 | 44 | 1009.8 |
| 20260904213007 | 92 | 147 | 13.0 | 18.0 | 0.00 | 0.00 | 0.00 | 43 | 1010.0 |
| 20260904212507 | 96 | 126 | 12.0 | 16.0 | 0.00 | 0.00 | 0.00 | 43 | 1010.0 |
| 20260904212007 | 96 | 114 | 13.0 | 23.0 | 0.00 | 0.00 | 0.00 | 43 | 1010.1 |
| 20260904211507 | 96 | 136 | 12.0 | 20.0 | 0.00 | 0.00 | 0.00 | 43 | 1010.2 |
| 20260904211007 | 96 | 158 | 13.0 | 21.0 | 0.00 | 0.00 | 0.00 | 44 | 1010.1 |
| 20260904210506 | 96 | 151 | 13.0 | 18.0 | 0.00 | 0.00 | 0.00 | 44 | 1010.1 |
| 20260904210007 | 96 | 136 | 16.0 | 21.0 | 0.00 | 0.00 | 0.00 | 44 | 1010.1 |
| 20260904205509 | 96 | 125 | 10.0 | 18.0 | 0.00 | 0.00 | 0.00 | 43 | 1010.1 |
| 20260904205007 | 96 | 119 | 12.0 | 18.0 | 0.00 | 0.00 | 0.00 | 44 | 1010.1 |
| 20260904204506 | 95 | 130 | 10.0 | 17.0 | 0.00 | 0.00 | 0.00 | 45 | 1010.1 |
| 20260904204007 | 96 | 105 | 9.0 | 17.0 | 0.00 | 0.00 | 0.00 | 43 | 1010.1 |
| 20260904203507 | 97 | 127 | 12.0 | 21.0 | 0.00 | 0.00 | 0.00 | 43 | 1010.1 |
| 20260904203007 | 97 | 130 | 10.0 | 20.0 | 0.00 | 0.00 | 0.00 | 41 | 1010.1 |
| 20260904202507 | 97 | 128 | 10.0 | 17.0 | 0.00 | 0.00 | 0.00 | 42 | 1010.2 |
| 20260904202008 | 97 | 130 | 13.0 | 20.0 | 0.00 | 0.00 | 0.00 | 43 | 1010.1 |
| 20260904201506 | 96 | 137 | 12.0 | 20.0 | 0.00 | 0.00 | 0.00 | 42 | 1010.1 |
| 20260904201007 | 95 | 127 | 12.0 | 15.0 | 0.00 | 0.00 | 0.00 | 44 | 1010.1 |
| 20260904200006 | 96 | 114 | 7.0 | 18.0 | 0.00 | 0.00 | 0.00 | 43 | 1010.1 |
| 20260904195506 | 97 | 134 | 13.0 | 17.0 | 0.00 | 0.00 | 0.00 | 41 | 1010.2 |
| 20260904195007 | 97 | 134 | 10.0 | 17.0 | 0.00 | 0.00 | 0.00 | 40 | 1010.3 |
| 20260904194006 | 99 | 136 | 10.0 | 18.0 | 0.00 | 0.00 | 0.00 | 36 | 1010.2 |
| 20260904193507 | 99 | 191 | 6.0 | 13.0 | 0.00 | 0.00 | 0.00 | 36 | 1010.3 |
| 20260904193007 | 99 | 158 | 9.0 | 13.0 | 0.00 | 0.00 | 0.00 | 35 | 1010.4 |
| 20260904192007 | 98 | 121 | 8.0 | 16.0 | 0.00 | 0.00 | 0.00 | 36 | 1010.5 |
| 20260904191506 | 98 | 91 | 5.0 | 13.0 | 0.00 | 0.00 | 0.00 | 37 | 1010.5 |
| 20260904191006 | 98 | 118 | 8.0 | 15.0 | 0.00 | 0.00 | 0.00 | 36 | 1010.7 |
| 20260904190007 | 97 | 120 | 4.0 | 9.0 | 0.00 | 0.00 | 0.00 | 37 | 1010.8 |
| 20260904185507 | 97 | 188 | 3.0 | 15.0 | 0.00 | 0.00 | 0.00 | 39 | 1010.8 |
| 20260904185007 | 97 | 135 | 10.0 | 16.0 | 0.00 | 0.00 | 0.00 | 38 | 1010.8 |
| 20260904184006 | 97 | 175 | 5.0 | 15.0 | 0.00 | 0.00 | 0.00 | 38 | 1011.0 |
| 20260904183506 | 97 | 173 | 6.0 | 12.0 | 0.00 | 0.00 | 0.00 | 38 | 1011.0 |
| 20260904183007 | 97 | 194 | 6.0 | 15.0 | 0.00 | 0.00 | 0.00 | 39 | 1011.3 |
| 20260904182007 | 96 | 167 | 7.0 | 13.0 | 0.00 | 0.00 | 0.00 | 40 | 1011.4 |
| 20260904181506 | 96 | 184 | 5.0 | 12.0 | 0.00 | 0.00 | 0.00 | 40 | 1011.5 |
| 20260904181007 | 96 | 147 | 5.0 | 12.0 | 0.00 | 0.00 | 0.00 | 41 | 1011.6 |
| 20260904180006 | 95 | 162 | 6.0 | 12.0 | 0.00 | 0.00 | 0.00 | 42 | 1011.9 |
| 20260904175506 | 95 | 137 | 7.0 | 14.0 | 0.00 | 0.00 | 0.00 | 44 | 1012.0 |
| 20260904175007 | 95 | 153 | 9.0 | 14.0 | 0.00 | 0.00 | 0.00 | 44 | 1012.0 |
| 20260904174506 | 95 | 212 | 8.0 | 12.0 | 0.00 | 0.00 | 0.00 | 43 | 1012.1 |
| 20260904173506 | 95 | 108 | 4.0 | 9.0 | 0.00 | 0.00 | 0.00 | 46 | 1012.3 |
| 20260904173007 | 95 | 182 | 3.0 | 10.0 | 0.00 | 0.00 | 0.00 | 46 | 1012.3 |
| 20260904172506 | 95 | 205 | 9.0 | 14.0 | 0.00 | 0.00 | 0.00 | 45 | 1012.5 |
| 20260904172007 | 94 | 156 | 8.0 | 14.0 | 0.00 | 0.00 | 0.00 | 46 | 1012.5 |
| 20260904171007 | 94 | 149 | 12.0 | 18.0 | 0.00 | 0.00 | 0.00 | 48 | 1012.6 |
| 20260904170506 | 94 | 195 | 5.0 | 12.0 | 0.00 | 0.00 | 0.00 | 49 | 1012.6 |
| 20260904170006 | 93 | 176 | 6.0 | 12.0 | 0.00 | 0.00 | 0.00 | 50 | 1012.6 |
| 20260904165506 | 94 | 168 | 6.0 | 12.0 | 0.00 | 0.00 | 0.00 | 50 | 1012.6 |
| 20260904165007 | 94 | 192 | 8.0 | 13.0 | 0.00 | 0.00 | 0.00 | 51 | 1012.7 |
| 20260904164506 | 93 | 180 | 8.0 | 13.0 | 0.00 | 0.00 | 0.00 | 50 | 1012.8 |
| 20260904164007 | 94 | 160 | 6.0 | 13.0 | 0.00 | 0.00 | 0.00 | 52 | 1012.8 |
| 20260904163507 | 93 | 215 | 6.0 | 12.0 | 0.00 | 0.00 | 0.00 | 52 | 1012.9 |
| 20260904163007 | 93 | 176 | 6.0 | 12.0 | 0.00 | 0.00 | 0.00 | 52 | 1012.9 |
| 20260904162508 | 93 | 171 | 6.0 | 12.0 | 0.00 | 0.00 | 0.00 | 53 | 1012.8 |
| 20260904162009 | 93 | 171 | 7.0 | 13.0 | 0.00 | 0.00 | 0.00 | 54 | 1012.9 |
| 20260904161509 | 93 | 159 | 9.0 | 13.0 | 0.00 | 0.00 | 0.00 | 54 | 1012.8 |
| 20260904161009 | 93 | 167 | 7.0 | 12.0 | 0.00 | 0.00 | 0.00 | 56 | 1012.8 |
| 20260904160509 | 92 | 156 | 11.0 | 16.0 | 0.00 | 0.00 | 0.00 | 56 | 1012.8 |
| 20260904160009 | 92 | 171 | 6.0 | 13.0 | 0.00 | 0.00 | 0.00 | 58 | 1012.7 |
| 20260904155512 | 92 | 163 | 5.0 | 12.0 | 0.00 | 0.00 | 0.00 | 59 | 1012.7 |
| 20260904155009 | 92 | 184 | 7.0 | 13.0 | 0.00 | 0.00 | 0.00 | 58 | 1012.7 |
| 20260904154009 | 91 | 153 | 8.0 | 14.0 | 0.00 | 0.00 | 0.00 | 61 | 1012.7 |
| 20260904153509 | 90 | 190 | 8.0 | 15.0 | 0.00 | 0.00 | 0.00 | 61 | 1012.6 |
| 20260904153009 | 91 | 194 | 9.0 | 15.0 | 0.00 | 0.00 | 0.00 | 61 | 1012.6 |
| 20260904152509 | 91 | 192 | 5.0 | 10.0 | 0.00 | 0.00 | 0.00 | 63 | 1012.6 |
| 20260904152009 | 90 | 180 | 7.0 | 10.0 | 0.00 | 0.00 | 0.00 | 62 | 1012.6 |
| 20260904151509 | 90 | 146 | 7.0 | 14.0 | 0.00 | 0.00 | 0.00 | 64 | 1012.6 |
| 20260904150509 | 89 | 184 | 5.0 | 9.0 | 0.00 | 0.00 | 0.00 | 68 | 1012.6 |
| 20260904150009 | 89 | 164 | 8.0 | 14.0 | 0.00 | 0.00 | 0.00 | 67 | 1012.6 |
| 20260904145509 | 88 | 164 | 6.0 | 12.0 | 0.00 | 0.00 | 0.00 | 68 | 1012.6 |
| 20260904145009 | 88 | 182 | 9.0 | 15.0 | 0.00 | 0.00 | 0.00 | 68 | 1012.5 |
| 20260904144509 | 88 | 186 | 6.0 | 10.0 | 0.00 | 0.00 | 0.00 | 69 | 1012.6 |
| 20260904143509 | 87 | 164 | 6.0 | 12.0 | 0.00 | 0.00 | 0.00 | 72 | 1012.5 |
| 20260904143010 | 87 | 198 | 6.0 | 13.0 | 0.00 | 0.00 | 0.00 | 71 | 1012.4 |
| 20260904142508 | 87 | 169 | 7.0 | 15.0 | 0.00 | 0.00 | 0.00 | 73 | 1012.5 |
| 20260904142010 | 87 | 191 | 7.0 | 10.0 | 0.00 | 0.00 | 0.00 | 73 | 1012.5 |
| 20260904141509 | 87 | 176 | 9.0 | 15.0 | 0.00 | 0.00 | 0.00 | 73 | 1012.5 |
| 20260904141009 | 87 | 165 | 7.0 | 13.0 | 0.00 | 0.00 | 0.00 | 74 | 1012.3 |
| 20260904140509 | 86 | 176 | 7.0 | 12.0 | 0.00 | 0.00 | 0.00 | 76 | 1012.3 |
| 20260904140009 | 85 | 192 | 7.0 | 12.0 | 0.00 | 0.00 | 0.00 | 77 | 1012.3 |
| 20260904135010 | 85 | 173 | 7.0 | 12.0 | 0.00 | 0.00 | 0.00 | 78 | 1012.1 |
| 20260904134508 | 84 | 199 | 9.0 | 15.0 | 0.00 | 0.00 | 0.00 | 78 | 1012.0 |
| 20260904134009 | 84 | 193 | 5.0 | 10.0 | 0.00 | 0.00 | 0.00 | 80 | 1012.1 |
| 20260904133509 | 84 | 167 | 7.0 | 12.0 | 0.00 | 0.00 | 0.00 | 81 | 1012.1 |
| 20260904132509 | 83 | 171 | 5.0 | 10.0 | 0.00 | 0.00 | 0.00 | 82 | 1011.9 |
| 20260904132009 | 83 | 161 | 6.0 | 12.0 | 0.00 | 0.00 | 0.00 | 83 | 1011.9 |
| 20260904131509 | 82 | 154 | 6.0 | 10.0 | 0.00 | 0.00 | 0.00 | 85 | 1011.9 |
| 20260904130509 | 81 | 153 | 7.0 | 9.0 | 0.00 | 0.00 | 0.00 | 87 | 1011.8 |
| 20260904125510 | 81 | 141 | 6.0 | 8.0 | 0.00 | 0.00 | 0.00 | 88 | 1011.8 |
| 20260904125010 | 80 | 156 | 5.0 | 7.0 | 0.00 | 0.00 | 0.00 | 89 | 1011.9 |
| 20260904124508 | 80 | 149 | 5.0 | 7.0 | 0.00 | 0.00 | 0.00 | 90 | 1011.9 |
| 20260904123509 | 80 | 147 | 6.0 | 7.0 | 0.00 | 0.00 | 0.00 | 90 | 1011.9 |
| 20260904123009 | 80 | 157 | 5.0 | 7.0 | 0.00 | 0.00 | 0.00 | 90 | 1011.8 |
| 20260904122010 | 80 | 154 | 5.0 | 7.0 | 0.00 | 0.00 | 0.00 | 90 | 1011.7 |
| 20260904121509 | 80 | 146 | 5.0 | 7.0 | 0.00 | 0.00 | 0.00 | 90 | 1011.7 |
| 20260904121009 | 80 | 147 | 5.0 | 7.0 | 0.00 | 0.00 | 0.00 | 90 | 1011.6 |